Location: Alafon
(8.4500°N, 4.2333°E)
Time: 16:49:21
(UTC+00:00)

Transit 2A - Pass Details

Date: 04 August 2021
Orbit: 595 x 964 km, 66.7° (Epoch: 18 September)

Event Time Altitude Azimuth Distance (km) Brightness Sun altitude
Rises 15:47:47 0° 327° (NNW) 3,505 10.1 31.4°
Reaches altitude 10° 15:50:21 10° 320° (NW) 2,605 9.7 30.8°
Maximum altitude 15:56:05 42° 251° (WSW) 1,322 8.5 29.4°
Drops below altitude 10° 16:02:03 10° 182° (S) 2,693 8.8 28.0°
Sets 16:04:45 0° 175° (S) 3,634 9.3 27.3°
